Wind_Speed
15 4 10 12 9 5 4 3 4 8 9 7 8 6 11 6 9 14 15 14 12 10 10 10 10 10 8 4 8 7 11 19 26 27 28 27 26 26 26 26 27 27 29 30
5 17 12 9 6 5 5 7 9 9 4 1 1 8 7 3 5 15 16 12 10 10 10 12 13 14 16 16 14 10 6 10 11 11 22 28 30 30 28 26 26 27 28 27
8 8 13 9 5 9 7 8 5 6 6 4 1 6 2 3 6 11 11 12 10 10 12 12 13 14 14 16 17 16 14 9 8 8 7 12 20 26 25 23 24 24 24 25
5 7 15 11 11 8 8 9 8 3 2 3 2 4 3 4 5 3 10 12 11 9 9 10 12 13 15 17 16 15 14 10 6 5 4 4 7 12 14 18 19 20 21 23
7 12 15 12 10 9 10 6 2 0 1 3 2 1 6 6 6 7 9 13 12 10 9 10 12 13 14 14 14 14 13 13 14 13 13 10 8 9 10 10 10 11 11 12
2 15 9 9 5 7 6 4 7 4 2 2 7 7 4 8 10 6 6 16 15 11 9 9 9 9 10 11 11 12 12 14 13 12 12 13 13 12 11 12 12 12 12 12
4 3 1 5 5 2 5 6 1 1 1 6 1 3 8 9 8 15 13 21 17 13 10 8 7 6 7 8 9 11 11 12 12 13 14 14 14 14 14 15 16 18 20 20
6 9 8 5 6 7 6 7 5 6 4 3 1 6 6 5 4 17 29 25 20 14 9 6 5 5 6 7 7 7 8 8 10 12 13 12 13 13 14 15 18 20 21 22
7 4 1 1 3 6 5 4 4 2 1 2 3 6 3 7 8 17 23 24 20 14 10 7 5 4 6 4 4 4 6 7 9 12 13 14 14 16 18 19 20 21 21 23
5 5 1 2 3 2 4 4 2 2 3 4 4 5 4 2 7 8 10 20 18 15 12 8 6 6 5 2 0 0 3 8 11 14 15 16 17 19 21 22 24 24 25 28
6 4 1 3 4 7 2 1 2 3 4 4 1 5 5 8 8 13 11 22 20 18 13 9 7 8 7 6 4 1 6 11 14 15 16 18 20 22 24 25 27 29 32 34
2 5 4 3 1 1 3 7 5 4 3 1 3 5 4 1 7 13 20 24 19 15 13 11 10 10 9 7 4 7 11 13 15 17 18 20 23 25 26 27 29 31 33 34
5 3 4 3 4 2 4 4 4 4 3 4 5 5 4 6 7 9 12 13 16 16 15 13 13 12 10 6 6 10 13 16 18 19 21 22 24 25 27 29 30 31 31 31
2 3 5 7 4 5 5 5 5 5 4 3 5 2 1 2 4 5 9 14 17 17 17 17 15 12 8 5 7 10 14 17 20 22 24 25 25 25 26 27 29 31 31 32
3 4 2 3 3 3 4 6 8 7 4 6 1 5 3 6 6 12 15 13 17 21 20 18 15 11 5 5 7 12 16 20 21 22 22 21 22 25 27 29 30 30 31 31
3 3 2 2 4 2 3 5 6 5 4 6 2 11 5 7 6 3 4 12 23 23 21 17 13 9 8 6 10 15 19 21 21 20 20 22 25 27 28 29 29 29 30 30
3 3 2 2 3 5 5 6 5 4 4 5 4 5 4 5 6 7 3 14 22 23 21 18 14 9 4 9 14 17 18 19 17 18 20 22 25 26 27 28 29 29 31 32
4 4 2 2 2 1 1 4 6 5 3 3 4 5 3 4 5 4 1 12 19 22 20 15 8 4 8 14 15 17 17 15 18 21 23 24 25 27 28 29 30 32 32 34
3 4 3 3 2 5 2 3 3 3 2 2 4 1 1 2 4 5 4 11 14 17 15 10 4 7 13 17 19 17 15 18 21 23 24 25 26 28 29 31 32 32 34 35
5 6 4 3 3 5 3 2 2 2 2 3 2 3 3 2 4 4 6 10 15 15 9 4 8 11 18 19 17 16 18 21 22 24 24 25 26 27 29 30 32 34 34 35
3 3 5 3 2 6 5 7 1 4 3 6 10 10 11 2 6 10 9 10 10 7 6 8 12 18 24 21 17 18 20 22 23 24 25 26 26 28 30 32 32 34 35 36
6 6 4 3 2 7 3 0 3 4 5 8 10 9 8 7 7 8 12 13 12 10 9 12 15 21 22 15 17 18 20 22 23 24 26 27 29 30 31 32 34 35 36 36
2 5 4 7 5 1 7 9 10 7 5 1 4 5 5 7 10 12 13 13 11 11 12 12 21 18 12 14 16 19 21 23 25 26 28 30 31 31 32 33 35 36 36 35
2 3 2 1 1 6 9 11 3 2 1 3 3 5 5 8 11 13 15 14 13 12 12 16 13 10 13 15 16 19 22 24 26 29 31 32 33 34 33 34 35 35 34 33
6 2 2 3 6 1 11 3 3 3 5 6 7 8 10 12 11 13 14 12 12 14 12 9 9 13 15 17 18 19 21 24 27 30 32 33 33 33 35 37 37 35 33 26
7 6 4 4 4 3 2 6 8 7 7 7 11 13 13 13 14 14 12 13 12 9 7 9 12 15 17 19 20 22 22 25 28 32 32 31 32 34 38 39 40 36 32 30
Wind_Direction
195 160 190 193 189 187 170 253 275 274 264 169 210 234 259 287 131 127 130 124 109 93 80 70 59 51 39 349 276 294 277 265 259 257 255 261 269 279 285 289 288 293 297 298
155 212 193 188 193 204 247 280 286 286 290 215 214 263 277 138 163 148 144 131 119 109 90 75 69 64 59 56 50 35 293 284 298 289 265 259 263 271 279 285 289 294 299 303
188 163 175 186 177 212 227 221 250 231 324 330 77 303 196 12 130 145 139 128 117 98 84 74 70 66 64 60 52 44 35 11 324 327 295 272 269 273 280 285 290 292 293 296
188 158 176 200 214 168 234 221 234 255 37 240 62 274 280 221 190 160 150 131 114 103 94 81 75 72 64 59 54 48 43 40 21 350 320 304 275 278 287 293 297 299 299 299
194 159 177 195 212 178 227 189 163 174 91 26 293 78 268 141 228 210 202 142 128 117 103 87 76 72 68 63 54 51 45 47 43 38 40 36 31 21 9 356 345 332 324 319
122 171 162 192 183 190 152 91 38 45 73 311 223 169 259 189 210 193 193 158 141 133 117 98 92 87 70 58 50 42 39 45 45 46 49 46 41 32 21 14 5 360 354 351
349 193 183 152 118 64 85 82 333 322 324 226 155 132 252 213 199 187 169 166 154 146 136 124 113 96 71 54 45 41 41 45 42 37 32 26 20 10 4 358 348 340 335 332
178 166 185 188 169 170 181 157 163 206 199 242 56 231 251 243 150 156 168 162 164 160 147 154 143 110 74 54 41 32 25 26 22 19 15 5 357 352 346 338 334 330 327 326
152 240 67 115 125 131 189 178 193 134 15 40 227 284 314 35 97 134 154 165 170 172 183 176 144 110 81 70 31 13 1 3 2 358 354 355 351 347 344 339 333 328 324 323
185 113 240 166 106 39 140 167 92 352 193 243 288 277 247 148 154 143 161 174 180 189 188 180 155 121 139 147 104 336 351 350 349 348 348 348 343 336 332 331 328 327 324 324
146 106 214 108 193 172 125 230 90 135 141 189 258 268 217 207 191 172 183 189 193 196 187 177 154 166 176 187 198 285 325 333 338 342 341 338 335 331 329 327 324 323 322 323
175 117 123 193 285 203 199 194 153 135 216 177 153 274 320 323 182 169 193 202 202 198 186 170 175 181 186 196 241 301 324 333 339 338 335 330 325 321 318 318 320 321 322 321
180 111 98 50 359 303 215 197 153 111 101 205 150 261 339 50 151 196 189 196 207 195 176 175 180 186 195 216 277 311 324 333 333 331 326 323 325 325 325 326 326 325 325 324
117 120 162 182 184 142 186 181 177 148 145 203 214 216 243 228 176 185 187 231 209 181 182 187 190 194 207 246 299 312 323 328 327 324 322 324 325 328 330 329 327 326 326 325
88 116 95 89 111 117 182 183 191 191 181 190 194 205 218 245 241 249 264 240 186 182 184 194 200 198 210 262 299 324 326 326 324 324 326 330 330 329 330 329 330 330 330 329
12 131 119 44 13 54 253 254 240 223 214 268 348 294 202 276 314 281 267 179 181 187 188 193 198 209 239 288 326 325 325 322 322 323 326 328 328 331 332 333 335 336 334 334
62 110 86 215 337 323 283 212 211 180 176 170 214 244 24 342 33 47 229 193 191 189 197 203 210 222 289 321 324 322 318 319 320 323 326 328 331 333 336 338 338 338 336 334
122 97 84 170 2 291 225 302 208 162 118 232 330 322 350 79 94 28 4 209 202 202 200 198 206 255 313 324 323 317 316 318 322 325 328 332 335 336 337 338 338 336 334 331
58 113 94 141 204 300 82 346 120 152 47 33 108 29 48 117 164 323 264 231 220 203 199 203 230 313 324 327 323 315 312 316 320 326 330 334 336 335 335 335 333 332 330 328
58 74 107 76 147 218 221 245 273 105 150 357 321 18 305 333 351 264 206 201 200 200 198 251 294 318 328 321 315 312 316 321 325 328 330 332 332 332 330 330 331 331 329 328
71 44 153 158 229 293 249 257 203 118 216 41 58 31 15 331 272 304 215 214 219 217 247 283 307 316 319 308 304 312 320 324 326 326 327 329 330 329 330 330 331 331 330 331
162 141 185 111 167 263 322 12 176 160 98 65 49 30 7 334 290 260 244 230 225 235 259 292 300 313 307 302 310 318 322 324 324 324 325 327 328 330 330 331 333 332 331 332
196 184 182 180 212 164 68 109 111 104 114 89 321 309 304 276 270 266 232 227 238 256 277 297 310 305 297 301 316 323 324 325 324 323 325 326 327 329 333 333 332 332 332 331
269 180 206 121 146 141 132 137 140 175 247 256 277 298 262 275 275 261 247 255 259 267 288 309 302 299 305 314 321 322 324 324 322 322 323 326 328 330 331 332 332 329 328 328
215 137 170 264 289 81 155 154 158 230 258 297 264 249 288 300 289 274 264 254 265 284 299 293 296 304 310 315 318 323 325 322 320 320 323 325 325 327 329 330 329 326 324 320
205 187 174 232 246 165 270 343 322 303 279 280 268 281 282 276 267 265 258 268 280 281 278 292 299 304 313 317 321 327 324 320 321 321 322 323 323 327 328 327 324 322 324 322
Height
1493 1493 1498 1504 1502 1506 1508 1512 1512 1501 1489 1490 1491 1489 1483 1479 1480 1480 1482 1483 1483 1483 1483 1481 1480 1478 1476 1474 1472 1472 1473 1473 1473 1475 1477 1478 1478 1479 1479 1479 1479 1479 1478 1476
1495 1493 1494 1498 1501 1505 1508 1513 1511 1497 1487 1486 1485 1487 1482 1480 1480 1480 1481 1482 1482 1483 1482 1481 1481 1480 1477 1475 1474 1473 1472 1471 1471 1471 1473 1475 1476 1476 1477 1477 1476 1475 1473 1472
1481 1483 1491 1494 1500 1505 1508 1512 1507 1502 1493 1488 1487 1492 1481 1481 1480 1482 1482 1481 1482 1482 1482 1483 1482 1481 1480 1477 1475 1474 1473 1472 1471 1471 1471 1472 1473 1473 1474 1473 1472 1471 1469 1466
1481 1481 1487 1494 1497 1501 1509 1497 1497 1494 1501 1508 1491 1512 1488 1485 1483 1482 1481 1480 1482 1483 1485 1484 1484 1482 1481 1479 1478 1477 1476 1474 1473 1472 1471 1471 1471 1470 1470 1468 1467 1465 1463 1461
1476 1478 1486 1491 1490 1494 1497 1490 1492 1494 1502 1502 1498 1506 1490 1484 1486 1483 1480 1480 1482 1484 1485 1485 1485 1484 1483 1482 1480 1480 1480 1477 1475 1474 1472 1471 1470 1469 1468 1467 1464 1462 1460 1458
1475 1476 1482 1483 1484 1487 1487 1492 1500 1505 1508 1516 1498 1499 1489 1485 1473 1478 1479 1479 1481 1484 1486 1486 1486 1485 1484 1483 1483 1482 1480 1479 1478 1476 1474 1472 1470 1469 1467 1465 1463 1461 1459 1456
1480 1476 1475 1478 1486 1485 1489 1502 1519 1520 1521 1514 1491 1499 1477 1468 1464 1463 1472 1477 1480 1484 1484 1485 1486 1486 1485 1484 1483 1482 1481 1479 1479 1477 1475 1473 1472 1470 1468 1465 1463 1459 1456 1452
1488 1489 1479 1473 1477 1485 1492 1495 1512 1513 1517 1501 1487 1495 1471 1459 1459 1464 1469 1474 1479 1482 1483 1485 1486 1485 1484 1484 1483 1482 1481 1480 1479 1478 1476 1474 1472 1469 1467 1464 1461 1458 1454 1450
1479 1481 1471 1472 1471 1476 1487 1495 1487 1496 1498 1503 1491 1476 1460 1461 1461 1465 1470 1473 1477 1480 1482 1484 1484 1484 1484 1484 1483 1483 1482 1480 1479 1477 1475 1472 1470 1467 1465 1462 1459 1455 1451 1447
1463 1483 1473 1473 1472 1475 1478 1481 1496 1501 1501 1503 1494 1483 1475 1469 1469 1468 1471 1473 1476 1479 1480 1482 1483 1484 1484 1483 1482 1482 1481 1480 1478 1475 1473 1470 1468 1465 1462 1459 1455 1452 1448 1443
1457 1468 1479 1473 1476 1480 1483 1486 1485 1491 1496 1501 1504 1488 1464 1465 1464 1464 1468 1471 1474 1476 1479 1481 1483 1482 1482 1482 1481 1481 1480 1478 1475 1473 1470 1468 1465 1462 1459 1455 1451 1446 1441 1436
1451 1468 1484 1476 1471 1472 1473 1477 1480 1493 1493 1502 1503 1487 1460 1460 1461 1464 1466 1468 1473 1476 1479 1480 1480 1480 1480 1480 1479 1478 1476 1475 1473 1470 1468 1464 1461 1458 1453 1449 1445 1440 1436 1432
1451 1467 1486 1480 1478 1474 1474 1472 1474 1480 1488 1492 1496 1486 1462 1460 1463 1465 1467 1471 1473 1475 1476 1477 1477 1477 1477 1477 1477 1476 1474 1473 1470 1468 1464 1461 1457 1453 1449 1444 1440 1435 1430 1426
1447 1461 1465 1471 1467 1468 1474 1471 1472 1476 1491 1484 1486 1472 1466 1465 1466 1467 1467 1468 1469 1473 1474 1474 1474 1474 1474 1475 1475 1474 1473 1470 1467 1464 1461 1456 1452 1448 1444 1440 1436 1431 1426 1420
1449 1460 1460 1460 1460 1462 1465 1466 1470 1474 1473 1476 1471 1473 1467 1467 1466 1465 1464 1464 1467 1470 1471 1471 1471 1472 1473 1473 1472 1471 1470 1468 1465 1461 1457 1453 1449 1445 1441 1436 1431 1426 1421 1416
1452 1464 1461 1466 1464 1465 1467 1466 1468 1470 1469 1471 1470 1468 1460 1461 1461 1461 1461 1462 1465 1466 1468 1469 1470 1471 1470 1470 1469 1468 1467 1464 1461 1457 1453 1449 1445 1441 1437 1432 1427 1422 1418 1413
1455 1460 1466 1470 1470 1467 1468 1464 1465 1464 1464 1464 1470 1462 1459 1460 1461 1463 1462 1463 1464 1465 1466 1467 1468 1469 1470 1469 1467 1465 1462 1459 1457 1454 1450 1446 1442 1438 1433 1429 1425 1419 1413 1408
1459 1465 1473 1477 1472 1479 1456 1454 1453 1457 1459 1459 1462 1462 1461 1462 1462 1463 1463 1463 1464 1465 1466 1467 1469 1469 1469 1467 1464 1461 1459 1457 1454 1450 1445 1442 1437 1433 1430 1425 1420 1415 1409 1405
1457 1465 1477 1479 1481 1467 1456 1454 1454 1453 1466 1462 1462 1462 1461 1461 1462 1461 1461 1461 1462 1463 1465 1466 1468 1468 1466 1464 1460 1457 1455 1453 1450 1446 1442 1438 1434 1429 1425 1421 1416 1411 1405 1400
1461 1463 1469 1495 1487 1474 1457 1452 1451 1452 1469 1463 1461 1462 1463 1462 1467 1461 1460 1460 1460 1461 1464 1466 1466 1465 1462 1460 1457 1455 1452 1449 1446 1442 1438 1434 1431 1426 1422 1418 1413 1407 1402 1395
1471 1473 1476 1480 1483 1471 1455 1451 1452 1465 1470 1461 1461 1460 1460 1463 1462 1460 1459 1459 1460 1462 1463 1462 1462 1461 1458 1456 1454 1452 1449 1446 1442 1439 1435 1431 1427 1423 1419 1413 1408 1402 1396 1389
1465 1477 1478 1483 1484 1481 1452 1452 1456 1460 1459 1460 1459 1460 1460 1461 1460 1458 1458 1457 1457 1458 1458 1458 1458 1456 1454 1452 1451 1448 1446 1442 1438 1434 1430 1426 1422 1418 1413 1408 1402 1397 1391 1384
1461 1457 1461 1462 1463 1452 1450 1452 1455 1457 1458 1459 1459 1460 1459 1458 1458 1457 1457 1457 1456 1456 1456 1455 1454 1453 1451 1450 1447 1445 1442 1437 1433 1430 1425 1421 1417 1412 1407 1403 1397 1391 1385 1380
1451 1450 1453 1452 1449 1451 1452 1454 1455 1455 1456 1456 1456 1456 1457 1458 1456 1455 1454 1454 1454 1454 1453 1451 1450 1450 1449 1446 1444 1441 1437 1433 1429 1425 1420 1416 1411 1406 1402 1398 1393 1387 1381 1376
1450 1449 1451 1452 1448 1449 1452 1453 1453 1454 1454 1453 1454 1455 1455 1453 1452 1451 1451 1450 1450 1449 1448 1448 1447 1447 1445 1443 1440 1437 1432 1428 1425 1420 1415 1410 1406 1401 1397 1392 1388 1382 1377 1374
1443 1444 1449 1451 1446 1447 1450 1450 1451 1451 1452 1452 1452 1451 1450 1449 1448 1448 1448 1448 1446 1445 1444 1445 1445 1443 1440 1437 1434 1431 1428 1424 1419 1414 1410 1406 1401 1395 1391 1386 1379 1376 1372 1367